This demonstration page uses our WeatherBlox Daily Observations layout. Learn more.

Left ArrowRight Arrow

34.16533, -84.80231

Hourly Observations for June 1, 2019

Temp ( °F °C ) Dew Point ( °F °C ) Humidity (%) Winds ( mph kmh ) Pressure ( in mb ) Visibility ( mi km ) Precip ( " mm )
12:53 am 00:53 Clear 64 17.8 57 13.9 78 78 Calm 29.91 1013 10 16 0.00 0.00
1:53 am 01:53 Clear 61 16.1 56 13.3 84 84 Calm 29.90 1013 10 16 0.00 0.00
2:53 am 02:53 Clear 59 15 56 13.3 90 90 Calm 29.89 1012 10 16 0.00 0.00
3:53 am 03:53 Clear 58 14.4 56 13.3 93 93 Calm 29.89 1012 10 16 0.00 0.00
4:53 am 04:53 Clear 58 14.4 55 12.8 90 90 Calm 29.90 1012 10 16 0.00 0.00
5:53 am 05:53 Clear 57 13.9 55 12.8 93 93 Calm 29.91 1013 10 16 0.00 0.00
6:53 am 06:53 Sunny 57 13.9 55 12.8 93 93 Calm 29.92 1013 10 16 0.00 0.00
7:53 am 07:53 Sunny 62 16.7 58 14.4 86 86 Calm 29.93 1014 10 16 0.00 0.00
8:53 am 08:53 Sunny 68 20 59 15 73 73 Calm 29.93 1014 10 16 0.00 0.00
9:53 am 09:53 Sunny 74 23.3 58 14.4 57 57 Calm 29.92 1013 10 16 0.00 0.00
10:53 am 10:53 Sunny 80 26.7 60 15.6 51 51 Calm 29.91 1013 10 16 0.00 0.00
11:53 am 11:53 Sunny 83 28.3 57 13.9 41 41 VRB 6 9 29.90 1012 10 16 0.00 0.00
12:53 pm 12:53 Mostly Cloudy 84 28.9 57 13.9 40 40 Calm 29.89 1012 10 16 0.00 0.00
1:53 pm 13:53 Mostly Cloudy 83 28.3 57 13.9 41 41 VRB 5 7 29.88 1012 10 16 0.00 0.00
2:53 pm 14:53 Mostly Sunny 85 29.4 57 13.9 39 39 VRB 3 6 29.86 1011 10 16 0.00 0.00
3:53 pm 15:53 Sunny 86 30 56 13.3 36 36 VRB 3 6 29.85 1011 10 16 0.00 0.00
4:53 pm 16:53 undefined 86 30 58 14.4 39 39 VRB 6 9 29.84 1011 10 16 0.00 0.00
5:53 pm 17:53 Mostly Sunny 84 28.9 57 13.9 40 40 VRB 3 6 29.84 1011 10 16 0.00 0.00
6:53 pm 18:53 Partly Cloudy 85 29.4 57 13.9 39 39 VRB 3 6 29.84 1011 10 16 0.00 0.00
7:53 pm 19:53 Sunny 81 27.2 58 14.4 45 45 Calm 29.85 1011 10 16 0.00 0.00
8:53 pm 20:53 Clear 77 25 58 14.4 52 52 Calm 29.85 1011 10 16 0.00 0.00
9:53 pm 21:53 Clear 71 21.7 59 15 66 66 Calm 29.86 1011 10 16 0.00 0.00
10:53 pm 22:53 Clear 70 21.1 59 15 68 68 Calm 29.86 1011 10 16 0.00 0.00
11:53 pm 23:53 Clear 68 20 59 15 73 73 Calm 29.87 1012 10 16 0.00 0.00

Powered by AerisWeather